FENGYUN 1C DEB

Satellite information

Favourite Embed

Satellite Type and Status

DEBRISIN ORBIT

Key statistics

Satellite FENGYUN 1C DEB at a glance.

Uptime

9659

Days in orbit

Revolutions

≈ 14.4

Per day

Orbit

SSO

Sun Synchronous Orbit

Inclination

99.2

Latest

Satellite identification and parameters

Extended collection of information and parameters for FENGYUN 1C DEB.

Object identification

Identified? True

Debris? True

Object name: FENGYUN 1C DEB

International designator: 1999-025BNQ

Object number (NORAD): 31282

Object ID (CCSDS): 31282

Country: PEOPLES REPUBLIC OF CHINA (PRC)

Current information (Y/N): Y

RCS size: SMALL

Orbital parameters

Period: 99.771 minutes

Inclination: 99.2118 deg

SMA: 7125.75 km

Apoapsis: 839.64 km

Periapsis: 655.59 km

RAAN: 203.1727 deg

Eccentricy: 0.01291448

Argument of periapsis: 92.0117 deg

Mean anomaly: 269.5865 deg

Mean motion: 14.43300951 rev/day

Mean motion (dot): 0.0000104 rev/day2

B* drag term: 0.00029375779 1/REarth

Two-line elements (TLE)

Creation date: Oct. 18, 2025, 2:17 a.m.

Reference frame: TEME

Reference center: EARTH

Epoch: Oct. 17, 2025, 11:43 a.m. UTC

TLE line 0: 0 FENGYUN 1C DEB

TLE line 1: 1 31282U 99025BNQ 25290.48855460 .00001040 00000-0 29376-3 0 9994

TLE line 2: 2 31282 99.2118 203.1727 0129145 92.0117 269.5865 14.43300951963090

Live tracking on map

Real-time ground track for satellite FENGYUN 1C DEB.

In-orbit conjunctions

A list of the most updated potential collisions computed for object FENGYUN 1C DEB.

Target Orbit TCA Probability of collision Miss distance Type
COSMOS 397 DEB * LEO 2025-08-21 20:37:05 0.0001378418 390.0 (m) DEBRIS
FENGYUN 1C DEB SSO 2025-08-18 19:51:07 0.0001531927 141.0 (m) DEBRIS
N-2 R/B SSO 2024-12-06 16:46:19 0.0002485937 558.0 (m) ROCKET BODY
TRANSIT 18 DEB LEO 2024-09-25 04:24:31 0.0001032069 767.0 (m) DEBRIS

Associated space launch

Chinese polar orbiting meteorological satellite

FENGYUN 1C DEB was lifted into orbit during the mission ‘Long March 4B | Feng Yun 1C’, on board a Long March 4B space rocket.

The launch took place on May 10, 1999, 1:33 a.m. from Launch Complex 7.

For more information about the launch, click the button.

Launch to space Long March 4B | Feng Yun 1C
Long March 4B | Feng Yun 1C

Agency: N/A

Status: Launch Successful

Launch date: May 10, 1999, 1:33 a.m. UTC

Rocket: Long March 4B

Launch pad: Launch Complex 7

Location: Taiyuan Satellite Launch Center, People's Republic of China

...

Latest news about this satellite

There are no fresh news available about this satellite. Check back as we update our databases every day.


Newsletter sign-up

Weekly statistics, charts and insights to help you stay on top of the space industry.